Christchurch, New Zealand

7:54 AM NZDT on October 20, 2017 (GMT +1300)
Christchurch

Weather History for 93780 - January, 2014

Change the Weather History Date:

Thursday, January 23, 2014

  Actual Average Record
Temperature  
Mean Temperature 63 °F -  
Max Temperature 75 °F 69 °F - ()
Min Temperature 51 °F 51 °F - ()
Degree Days  
Heating Degree Days 2    
Growing Degree Days 13 (Base 50)    
Moisture  
Dew Point 37 °F    
Average Humidity 42    
Maximum Humidity 82    
Minimum Humidity 22    
Precipitation  
Precipitation 0.00 in - - ()
Sea Level Pressure  
Sea Level Pressure 29.59 in    
Wind  
Wind Speed 12 mph ()    
Max Wind Speed 24 mph    
Max Gust Speed 37 mph    
Visibility 6.2 miles    
Events Rain    
T = Trace of Precipitation, MM = Missing Value Source: Averaged Metar Reports

Daily Weather History Graph

Daily Weather History Graph

Search for Another Location

Airport or City:

Trip Planner

Search our weather history database for the weather conditions in past years. The results will help you decide how hot, cold, wet, or windy it might be!

Date:

Astronomy

Jan. 23, 2014 Rise Set
Actual Time 6:17 AM NZDT 9:04 PM NZDT
Civil Twilight 5:44 AM NZDT 9:38 PM NZDT
Nautical Twilight 5:01 AM NZDT 10:20 PM NZDT
Astronomical Twilight 4:12 AM NZDT 11:08 PM NZDT
Moon No Moon Rise 12:58 PM NZDT (1/23)
Length of Visible Light 15h 54m
Length of Day
14h 47m
Waning Gibbous, 63% of the Moon is Illuminated
Jan 23
Waning Gibbous
Jan 24
Last Quarter
Jan 31
New
Feb 7
First Quarter
Feb 15
Full

Hourly Weather History & Observations

Time (NZDT) Temp. Dew Point Humidity Pressure Visibility Wind Dir Wind Speed Gust Speed Precip Events Conditions
12:00 AM 60.8 °F 33.8 °F 36% 29.50 in 6.2 mi West 15.0 mph - N/A   Unknown
12:30 AM 60.8 °F 32.0 °F 34% 29.50 in 6.2 mi WNW 17.3 mph - N/A   Unknown
1:00 AM 59.0 °F 32.0 °F 36% 29.50 in 6.2 mi WNW 11.5 mph - N/A   Unknown
1:30 AM 59.0 °F 32.0 °F 36% 29.50 in 6.2 mi West 11.5 mph - N/A   Unknown
2:00 AM 59.0 °F 32.0 °F 36% 29.53 in 6.2 mi West 9.2 mph - N/A   Unknown
2:30 AM 59.0 °F 32.0 °F 36% 29.53 in 6.2 mi WNW 10.4 mph - N/A   Unknown
3:00 AM 51.8 °F 32.0 °F 47% 29.53 in 6.2 mi SW 4.6 mph - N/A   Unknown
3:30 AM 55.4 °F 33.8 °F 44% 29.53 in 6.2 mi WNW 8.1 mph - N/A   Unknown
4:00 AM 53.6 °F 33.8 °F 47% 29.53 in 6.2 mi WNW 5.8 mph - N/A   Unknown
4:30 AM 51.8 °F 33.8 °F 50% 29.53 in 6.2 mi West 5.8 mph - N/A   Unknown
5:00 AM 55.4 °F 33.8 °F 44% 29.53 in 6.2 mi West 6.9 mph - N/A   Unknown
5:30 AM 55.4 °F 33.8 °F 44% 29.53 in 6.2 mi WNW 3.5 mph - N/A   Unknown
6:00 AM 57.2 °F 33.8 °F 41% 29.56 in 6.2 mi WNW 13.8 mph - N/A   Unknown
6:30 AM 57.2 °F 32.0 °F 38% 29.56 in 6.2 mi NW 15.0 mph - N/A   Unknown
7:00 AM 57.2 °F 32.0 °F 38% 29.56 in 6.2 mi NW 13.8 mph - N/A   Unknown
7:30 AM 59.0 °F 33.8 °F 39% 29.56 in 6.2 mi NW 12.7 mph - N/A   Unknown
8:00 AM 60.8 °F 35.6 °F 39% 29.59 in 6.2 mi NNW 4.6 mph - N/A   Unknown
8:30 AM 62.6 °F 35.6 °F 37% 29.59 in 6.2 mi NW 13.8 mph - N/A   Unknown
9:00 AM 62.6 °F 35.6 °F 37% 29.59 in 6.2 mi NW 15.0 mph - N/A   Unknown
9:30 AM 64.4 °F 35.6 °F 34% 29.59 in 6.2 mi WNW 20.7 mph - N/A   Unknown
10:00 AM 64.4 °F 33.8 °F 32% 29.59 in 6.2 mi NW 21.9 mph - N/A   Unknown
10:30 AM 66.2 °F 32.0 °F 28% 29.59 in 6.2 mi NW 24.2 mph 36.8 mph N/A   Unknown
11:00 AM 66.2 °F 33.8 °F 30% 29.59 in 6.2 mi NW 19.6 mph 33.4 mph N/A   Unknown
11:30 AM 68.0 °F 33.8 °F 28% 29.56 in 6.2 mi NW 23.0 mph - N/A   Unknown
12:00 PM 68.0 °F 33.8 °F 28% 29.56 in 6.2 mi NW 23.0 mph - N/A   Unknown
12:30 PM 69.8 °F 33.8 °F 27% 29.56 in 6.2 mi NW 19.6 mph - N/A   Unknown
1:00 PM 71.6 °F 32.0 °F 23% 29.56 in 6.2 mi West 21.9 mph 33.4 mph N/A   Unknown
1:30 PM 71.6 °F 33.8 °F 25% 29.56 in 6.2 mi WNW 19.6 mph - N/A   Unknown
2:00 PM 73.4 °F 33.8 °F 23% 29.56 in 6.2 mi WNW 19.6 mph - N/A   Unknown
2:30 PM 73.4 °F 33.8 °F 23% 29.56 in 6.2 mi WNW 23.0 mph - N/A   Unknown
3:00 PM 75.2 °F 35.6 °F 24% 29.56 in 6.2 mi WNW 21.9 mph 36.8 mph N/A   Unknown
3:30 PM 69.8 °F 33.8 °F 27% 29.59 in 6.2 mi WNW 20.7 mph - N/A   Unknown
4:00 PM 71.6 °F 30.2 °F 22% 29.59 in 6.2 mi WNW 15.0 mph 27.6 mph N/A   Mostly Cloudy
4:30 PM 68.0 °F 35.6 °F 30% 29.59 in 6.2 mi West 15.0 mph - N/A   Mostly Cloudy
5:00 PM 68.0 °F 35.6 °F 30% 29.59 in 6.2 mi West 8.1 mph - N/A   Mostly Cloudy
5:30 PM 60.8 °F 42.8 °F 52% 29.62 in 6.2 mi South 17.3 mph - N/A Rain Light Rain
6:00 PM 60.8 °F 42.8 °F 52% 29.62 in 6.2 mi SSE 9.2 mph - N/A Rain Light Rain
6:30 PM 60.8 °F 41.0 °F 48% 29.62 in 6.2 mi SE 8.1 mph - N/A Rain Light Rain Showers
7:00 PM 62.6 °F 41.0 °F 45% 29.65 in 6.2 mi SSE 2.3 mph - N/A Rain Light Rain Showers
7:30 PM 60.8 °F 42.8 °F 52% 29.65 in 6.2 mi NNW 5.8 mph - N/A Rain Light Rain Showers
8:00 PM 60.8 °F 44.6 °F 55% 29.71 in 6.2 mi NW 6.9 mph - N/A Rain Light Rain
8:30 PM 59.0 °F 44.6 °F 59% 29.71 in 6.2 mi NNE 8.1 mph - N/A Rain Light Rain
9:00 PM 59.0 °F 46.4 °F 63% 29.71 in 6.2 mi ENE 6.9 mph - N/A Rain Light Rain
9:30 PM 59.0 °F 48.2 °F 67% 29.74 in 6.2 mi East 6.9 mph - N/A   Mostly Cloudy
10:00 PM 57.2 °F 46.4 °F 67% 29.74 in 6.2 mi ESE 9.2 mph - N/A   Scattered Clouds
10:30 PM 53.6 °F 48.2 °F 82% 29.74 in 6.2 mi SSE 4.6 mph - N/A   Unknown
11:00 PM 51.8 °F 46.4 °F 82% 29.77 in 6.2 mi ESE 3.5 mph - N/A   Unknown
11:30 PM 51.8 °F 46.4 °F 82% 29.77 in 6.2 mi North 3.5 mph - N/A   Unknown